EHI
15 27 38 35 28 24 25 27 30 34 37 40 42 42 40 33 28 28 27 24 23 25 24 21 17 15 13 11 11 10 8 7 9 10 10 10 10 10 11 10 7 8 11
19 29 37 35 29 26 26 28 31 34 36 38 39 39 38 35 30 28 27 24 22 21 21 19 16 14 12 10 10 10 8 7 7 8 8 9 9 10 10 9 9 11 15
20 28 34 33 29 25 26 29 33 36 39 39 37 37 38 38 34 30 29 26 20 18 17 15 13 12 11 9 8 9 8 7 6 5 6 6 8 10 11 9 9 12 15
17 23 30 32 28 23 25 29 33 38 42 41 39 38 40 40 37 34 32 27 20 16 14 12 10 10 10 9 9 9 8 7 5 4 4 4 8 13 14 11 9 8 9
14 19 27 31 28 23 24 28 33 37 41 42 43 43 41 39 36 34 30 25 21 17 14 10 8 8 8 9 10 10 9 7 4 2 2 4 9 14 14 11 9 7 7
13 18 25 29 27 23 24 28 31 34 38 41 43 44 41 37 33 30 26 23 20 18 14 10 8 7 7 7 7 8 9 8 4 1 1 4 9 13 11 8 8 8 9
13 17 23 27 25 23 25 28 28 28 32 37 40 40 38 34 29 25 22 19 17 15 13 10 7 6 6 6 5 5 7 7 4 1 1 2 7 11 9 7 6 8 10
11 14 19 21 20 19 21 24 24 24 26 30 33 34 33 30 26 23 19 15 12 10 10 9 8 7 6 5 4 4 4 4 3 1 1 3 7 10 9 8 8 8 8
7 9 11 12 13 13 14 17 18 18 20 23 25 26 26 25 24 21 17 13 10 9 7 7 7 7 5 4 3 4 4 4 2 1 1 5 10 11 9 9 10 8 6
5 5 6 6 6 8 10 11 11 12 13 16 17 19 18 18 18 17 15 12 10 8 7 5 6 5 4 3 3 4 4 4 3 1 2 7 11 9 7 8 9 7 5
6 5 5 5 4 5 7 8 8 8 9 11 12 13 11 10 11 12 13 13 10 8 6 5 4 4 4 4 3 3 4 3 3 3 6 10 10 6 5 6 7 5 4
8 7 6 5 4 4 5 7 8 9 9 10 9 10 10 10 11 12 15 16 13 9 7 6 4 4 5 6 5 4 4 3 4 6 9 10 9 5 5 6 6 5 5
7 7 6 5 4 4 5 7 9 10 12 12 11 11 13 16 17 17 19 20 17 13 11 9 6 5 6 6 6 5 4 3 5 6 9 10 7 5 5 6 6 6 7
8 8 7 5 5 5 6 7 8 9 11 12 12 13 15 19 21 21 22 22 19 17 16 13 8 5 5 5 5 4 2 2 3 4 8 10 7 4 4 4 5 6 7
9 9 8 6 6 7 7 7 6 7 8 8 10 12 13 16 18 19 19 19 17 15 15 14 9 6 6 5 3 2 1 1 1 2 5 8 7 5 3 2 2 3 4
8 8 7 7 7 7 8 7 5 4 5 5 7 9 10 12 14 14 13 14 13 11 11 12 11 9 7 5 3 1 1 1 1 1 2 3 5 5 4 2 1 0 1
11 10 8 7 8 9 9 7 5 5 5 5 6 7 7 8 10 11 10 10 10 10 10 11 11 10 7 4 2 2 3 4 4 2 1 0 2 3 4 4 3 1 1
17 15 11 9 10 11 11 9 7 8 7 6 6 6 5 5 7 9 10 9 7 8 10 11 11 10 6 4 4 5 8 9 6 3 1 1 2 3 4 5 5 3 2
18 18 16 14 14 15 14 12 10 10 10 8 5 4 4 5 5 7 8 8 8 7 8 10 11 10 8 5 4 6 10 11 8 4 2 4 5 5 5 6 5 4 3
17 19 19 19 19 20 18 16 12 11 10 8 5 4 5 5 4 5 6 8 9 9 9 10 10 9 9 7 5 6 9 10 9 7 5 6 7 6 6 6 4 3 2
18 19 20 20 21 21 20 18 15 11 9 7 5 5 5 4 4 4 5 7 8 9 10 9 9 9 9 8 7 7 8 10 9 8 7 6 4 4 4 4 3 2 1
16 18 19 18 18 18 18 16 14 11 8 6 6 6 5 4 3 3 4 6 7 8 8 7 7 8 8 8 8 7 7 8 7 6 5 3 2 2 2 2 2 1 2
13 14 16 17 18 17 16 14 12 11 8 7 6 6 6 5 4 3 4 5 6 6 6 5 5 6 8 8 7 5 5 6 6 5 2 1 1 3 2 1 1 1 1
12 13 14 17 18 18 16 14 12 12 10 8 7 7 7 6 4 3 3 4 4 4 4 4 4 5 7 8 6 4 4 4 4 4 3 3 3 3 3 2 1 1 0
14 15 17 18 18 17 15 14 14 13 11 9 7 7 7 7 5 4 3 3 3 3 3 4 3 4 6 7 6 5 5 5 3 3 4 4 5 4 3 3 2 1 0
15 17 20 20 18 14 13 15 15 13 11 9 8 7 7 7 6 4 3 3 3 3 4 4 4 4 4 5 7 7 6 5 4 3 4 5 6 5 4 4 4 2 1
Wind_Speed
6 9 13 9 8 7 7 9 10 11 11 12 12 12 12 12 11 11 11 10 10 10 10 9 9 8 8 8 7 7 7 7 7 6 7 6 6 5 5 5 5 6 8
7 10 12 9 8 8 8 9 10 10 11 11 12 12 12 12 11 11 10 10 9 9 9 9 8 8 7 7 7 7 6 7 7 7 7 8 8 6 5 5 3 2 6
7 10 11 9 8 8 8 9 9 10 10 11 11 11 11 11 10 10 9 9 9 8 8 8 7 7 7 7 6 6 6 6 6 6 7 7 8 7 5 4 3 2 3
8 9 9 10 8 8 8 9 9 9 10 10 11 11 11 10 10 9 9 8 8 8 8 8 7 6 6 6 6 6 6 6 6 7 8 5 5 8 5 5 4 4 3
7 8 10 9 8 8 8 8 9 9 9 10 10 10 10 10 10 9 9 8 7 7 7 7 6 6 6 6 5 5 5 6 6 10 6 4 3 6 5 5 5 5 5
7 8 10 8 8 8 8 8 9 9 9 9 9 10 9 9 9 9 8 8 7 7 6 6 6 6 6 6 5 5 5 6 9 8 5 5 4 7 5 6 6 7 7
7 7 10 8 7 7 7 8 8 8 8 8 8 8 8 8 8 8 8 8 7 7 7 7 6 6 6 6 6 6 6 7 10 6 5 6 3 6 6 7 7 7 7
7 7 9 9 8 7 7 8 7 7 7 7 7 7 8 8 8 8 8 7 7 7 7 7 7 7 6 6 7 7 7 9 9 7 7 6 5 6 7 7 7 6 7
6 6 6 7 8 8 7 7 7 6 6 6 7 7 7 7 8 8 8 7 7 7 7 7 7 7 7 7 7 8 8 9 10 6 7 4 6 6 7 7 8 7 8
5 5 4 4 5 5 7 8 7 6 6 6 6 7 8 8 9 9 9 8 8 7 7 7 7 7 7 8 8 9 9 10 11 8 6 4 6 6 8 8 8 8 8
4 3 3 3 3 3 3 5 7 7 7 7 7 7 8 8 8 8 7 7 8 8 8 7 7 8 8 10 10 9 10 8 9 6 5 4 5 7 8 8 8 9 9
4 3 2 2 2 2 2 3 3 4 4 5 4 6 6 5 4 5 6 8 9 9 9 8 8 10 11 7 9 11 7 9 7 6 4 5 5 7 8 9 9 9 10
3 2 2 2 1 1 1 1 1 1 2 3 4 5 4 4 4 4 3 6 8 9 8 7 9 7 7 5 5 6 7 7 5 5 4 6 6 8 9 9 9 9 10
3 2 1 1 1 1 0 0 1 1 1 2 3 5 3 3 3 3 3 4 5 4 4 5 4 6 7 7 7 7 8 6 5 4 4 7 7 9 9 9 9 9 9
2 1 2 1 1 1 1 1 0 1 1 1 2 3 4 3 3 3 3 3 4 4 4 5 5 6 7 7 7 8 7 7 7 7 4 7 7 8 8 9 9 9 9
1 1 1 1 1 1 1 0 0 1 1 2 2 2 3 3 2 3 3 3 4 4 4 5 5 5 6 5 7 7 8 7 7 7 6 7 9 8 9 9 10 9 9
2 2 1 1 1 0 1 1 1 1 1 2 1 1 2 3 3 3 3 4 4 4 5 5 5 5 5 6 7 7 7 7 7 7 7 6 7 10 10 9 9 9 9
1 1 0 1 0 1 1 2 2 2 2 2 2 1 2 3 4 4 4 4 4 4 4 4 5 5 5 5 5 6 5 5 7 7 7 6 6 5 9 10 9 9 9
1 0 0 1 1 1 1 2 2 2 2 2 2 2 2 3 4 5 4 3 5 4 4 5 4 5 5 5 5 5 5 5 6 7 7 7 6 6 6 8 10 9 9
1 0 0 1 1 2 1 1 2 2 2 3 3 2 3 4 5 5 4 4 5 4 4 4 5 5 5 5 5 5 5 5 5 5 7 6 6 7 7 6 7 8 10
0 0 1 2 1 2 2 2 2 3 3 3 3 3 4 4 5 5 4 4 5 4 5 5 5 6 5 4 4 4 5 6 5 5 5 5 6 6 6 6 6 5 6
1 1 2 2 2 2 2 3 3 4 3 3 3 3 4 4 5 5 5 4 4 4 5 5 5 5 5 5 5 4 4 5 6 6 5 5 6 5 6 7 6 6 5
1 2 2 2 2 2 3 3 2 3 3 3 3 3 4 5 5 5 5 5 5 5 4 5 6 7 5 5 5 4 4 4 3 5 6 5 5 5 5 5 7 6 7
2 2 2 2 2 3 3 3 4 4 4 4 4 3 4 5 5 5 5 6 6 5 5 6 5 5 6 5 5 5 4 3 4 3 5 5 6 6 5 5 6 6 7
3 3 2 2 2 2 3 4 5 5 4 4 4 4 5 4 5 5 5 5 6 6 5 5 5 6 5 6 5 4 5 5 6 5 4 4 5 5 5 6 5 5 6
3 3 3 2 2 2 3 4 4 5 5 5 5 4 4 4 4 5 5 5 6 6 6 6 6 7 6 6 6 5 5 5 6 6 6 5 5 4 5 4 5 5 5
Wind_Direction
140 133 140 155 159 156 153 151 149 150 152 150 150 150 151 153 153 152 152 152 150 148 147 147 146 144 145 147 147 146 146 147 146 154 155 159 160 159 157 163 197 175 124
131 133 138 155 160 160 157 153 152 153 155 153 153 153 154 156 156 156 156 158 158 157 154 153 152 153 155 156 155 156 156 157 158 164 167 174 168 166 172 185 236 87 117
134 136 147 151 158 158 157 154 152 157 158 156 156 156 157 157 158 159 159 163 165 164 161 159 158 161 164 166 165 165 167 169 174 178 200 203 163 162 176 186 182 171 152
136 140 143 139 155 157 157 155 155 159 161 160 159 160 160 161 162 163 164 166 169 170 167 167 167 169 171 174 176 179 182 183 187 203 214 197 176 150 181 196 194 196 195
135 135 125 142 152 158 159 158 158 161 162 162 162 163 165 167 167 168 170 170 171 175 176 177 177 181 183 183 184 187 191 194 203 226 219 199 188 141 186 207 207 204 205
133 133 127 144 150 157 160 162 163 163 164 164 166 169 170 171 172 173 175 175 175 180 186 190 191 196 198 194 194 195 198 208 222 221 207 210 196 145 191 214 216 213 212
124 122 127 140 149 154 158 161 164 168 168 170 171 174 176 177 179 180 181 183 185 190 196 199 202 208 206 201 204 207 210 220 241 228 218 215 176 149 200 218 223 217 211
124 122 126 141 149 155 162 164 169 173 175 177 177 178 183 185 186 186 189 191 194 199 204 207 209 212 211 206 209 214 217 235 236 234 225 221 140 167 207 218 220 218 213
123 123 133 146 155 164 164 170 175 181 182 185 186 188 188 190 191 191 193 198 202 207 213 217 218 220 219 217 215 218 222 235 252 236 229 222 138 188 215 219 220 221 218
123 125 131 142 151 170 168 167 178 184 190 192 195 197 196 197 200 200 203 200 206 214 220 223 223 225 222 221 222 222 223 230 240 235 227 176 147 205 221 221 220 221 219
117 121 126 136 154 178 173 160 184 189 192 201 199 197 209 213 207 203 206 193 212 220 224 227 229 228 226 217 218 222 225 232 234 237 229 140 175 219 226 224 225 222 222
132 133 132 144 157 175 165 158 194 207 192 215 210 207 217 220 229 230 177 202 213 218 221 224 230 230 232 221 204 212 228 231 236 231 200 156 199 223 225 227 229 227 227
134 128 118 127 158 173 158 170 190 220 202 218 219 222 227 226 222 229 216 205 214 217 223 212 224 234 237 240 238 227 236 238 234 232 187 166 208 226 227 229 230 231 231
130 123 119 134 145 169 119 204 207 210 218 229 218 235 228 227 230 227 233 232 228 224 227 230 232 240 245 240 239 237 235 238 237 233 182 172 205 223 227 227 228 232 231
110 121 128 146 124 144 166 261 214 251 240 225 240 233 240 237 242 241 246 247 243 231 221 230 232 235 240 238 239 235 237 236 239 239 193 175 199 217 225 227 227 231 232
105 61 76 93 105 137 167 224 270 262 233 250 246 242 247 250 248 245 239 245 247 239 236 235 232 231 237 240 240 236 237 234 232 237 237 192 194 210 223 229 231 233 234
104 73 63 131 139 180 227 248 274 275 269 274 271 267 266 262 252 249 250 245 250 246 235 236 228 230 233 233 236 238 236 236 234 233 241 239 210 200 212 224 232 236 237
101 98 312 304 140 241 270 261 266 286 293 286 278 255 257 265 259 255 251 251 247 247 240 236 237 231 232 238 236 237 233 225 232 230 235 235 241 231 205 205 222 231 236
96 115 274 295 270 281 283 269 268 271 279 281 271 268 264 265 260 257 254 256 250 246 244 242 230 235 233 237 234 228 233 228 226 227 231 234 233 239 240 192 202 217 226
75 4 308 310 334 302 279 268 275 280 275 274 278 276 268 262 260 259 249 251 255 248 241 240 238 233 238 235 240 235 236 233 232 230 232 228 228 233 237 235 212 205 210
62 321 315 319 321 306 304 295 287 279 284 282 275 273 270 270 264 262 261 247 252 247 247 241 236 223 226 232 237 238 231 226 227 232 232 237 229 230 231 232 237 231 204
342 312 294 295 301 292 301 290 286 289 279 277 279 268 264 267 266 255 257 249 245 244 239 243 240 238 225 218 230 236 229 215 215 223 225 226 235 232 227 224 228 229 242
328 308 309 308 295 286 287 279 280 266 262 260 268 264 266 271 266 268 257 255 249 245 236 238 233 231 229 219 222 237 244 239 230 209 221 225 227 232 232 227 224 223 232
328 323 318 303 288 281 273 280 284 281 281 285 280 277 273 269 266 260 255 251 251 249 243 237 225 236 233 226 213 230 252 279 247 231 217 215 218 226 232 234 226 220 224
337 336 334 323 297 284 277 273 273 278 282 280 278 274 273 264 262 258 253 251 249 249 244 245 234 241 236 238 229 219 226 235 240 251 241 231 227 223 223 230 235 228 224
339 340 341 334 315 297 287 284 280 287 288 287 280 275 268 262 258 257 255 254 251 248 240 236 233 230 239 241 244 235 229 232 233 238 241 235 235 230 225 229 233 232 229